Погода в Каунасе

Поиск расширенной информации на нашем сайте:

Полезная информация:

Новости сайта



02.01.2020
Опубликован Долгосрочный прогноз погоды по городам России и ближнего зарубежья на январь 2020 года.
Карты: Прогноз на январь и февраль 2020 года, Сравнение прогнозируемой аномалии приземной температуры воздуха на январь 2020 года по разным моделям.




Погода в Каунасе - сегодня

Время (UTC), дата Ветер
(°,м/с) 
Видим.   Явления Облачность Т
(°С)
Тd
(°С)
f(%) Тe
(°С)
Pmin
(гПа)
dP
(гПа)
Po
(мм)
O2
(г/м3)
Тmin Tmax R s Состояние
почвы
12 26.02.20 220 (ЮЗ) 6-9{10}  19000 м    8/4 1500 м средняя, верхняя 
[Cu Sc|Ac trans|Ci fib]
+6.7 +1.4 69 +5  990.6  0.1  736  289           
15 26.02.20 220 (ЮЗ) 4-6{11}  20000 м    9/8 1500 м средняя 
[Sc|Ac As]
+5.5 +1.8 77 +4  990.8  0.2  736  290           
18 26.02.20 200 (Ю) 2-3{06}  16000 м    10/0 средняя, верхняя 
[Ac As|Cs]
+2.4 +1.3 92 +2  991.7  0.8  737  294    +7.1       
21 26.02.20 230 (ЮЗ) 2-4{04}  12000 м    10/6 1500 м средняя 
[Sc|Ac As]
+2.3 +1.1 92 +2  992.2  0.5  737  294           
00 27.02.20 240 (ЮЗ) 2-3{04}  20000 м    9/9 1500 м 
[Sc]
+1.9 +0 87 +1  992.9  0.6  738  295           
03 27.02.20 240 (ЮЗ) 3-4{05}  20000 м    9/5 1500 м средняя 
[Sc|Ac trans]
+0.1 -0.9 93 -2  993.3  0.4  738  297           
06 27.02.20 240 (ЮЗ) 4-6{06}  20000 м    9/4 1080 м средняя 
[Sc|Ac trans]
+0.5 -0.8 91 -2  994.4  1.1  739  297  -0.1        влажная 
09 27.02.20 250 (З) 6-10{10}  20000 м    10/10 500 м 
[Sc]
+2 -0.8 82 -1  995.3  0.9  739  296           
12 27.02.20 260 (З) 4-7{12}  19000 м  слаб. ливневой снег  10/10 630 м кучево-дожд. 
[Cb cap]
+2.4 -0.5 81 995.2  -0.1  739  295      0.0     
15 27.02.20 250 (З) 5-7{13}  20000 м  слаб. ливневой снег  10/10 1500 м кучево-дожд. 
[Cb cap]
+1.7 -0.7 84 -1  996.1  0.9  740  296           
18 27.02.20 250 (З) 5-9{10}  20000 м  слаб. ливневой снег  10/10 1500 м кучево-дожд. 
[Cb cap]
+0.6 -1.6 85 -2  996.6  0.5  740  298    +4  0.3     
21 27.02.20 250 (З) 5-8{11}  20000 м  в посл. час ливневой снег  10/10 1500 м 
[Sc]
+0.4 -3.6 74 -3  996.7  0.1  740  298           
00 28.02.20 260 (З) 5-9{10}  20000 м  слаб. снег{ливн. осадки}  10/10 1050 м 
[Sc]
+0.4 -3.4 76 -3  998.1  1.3  741  299      0.0     
03 28.02.20 270 (З) 5-9{10}  20000 м  в посл. час снег  8/4 1000 м средняя 
[Sc|Ac trans]
+0.1 -2.9 80 -3  998.6  0.5  742  299           
06 28.02.20 260 (З) 5-9{09}  20000 м  {снег}  8/8 900 м 
[Sc]
-0.6 -2.5 87 -4  1000.5  1.9  743  300  -1    0.0    замёрзшая 
09 28.02.20 260 (З) 5-8{10}  20000 м    10/10 1000 м 
[Sc]
+1.3 -2.2 77 -1  1002.7  2.2  745  299           
12 28.02.20 290 (З) 6-9{10}  20000 м  в посл. час ливневой снег  9/9 420 м кучево-дожд., верхняя 
[Cb cap|Ci fib]
+2.4 +0 84 -1  1004.3  1.7  746  298      0.0     
15 28.02.20 280 (З) 4-6{09}  20000 м  в посл. час ливневой дождь  9/8 360 м средняя 
[Cu Sc|Ac trans]
+2.2 +0.3 87 1006  1.6  747  299           
18 28.02.20 250 (З) 3-4{09}  20000 м  {ливн. осадки}  3/3 1000 м 
[Sc]
+0.2 -0.9 92 -2  1007.9  1.8  749  302    +2.5  0.0     
21 28.02.20 230 (ЮЗ) 3-5{05}  2200 м  слаб. снег  10/10 750 м 
[Ns]
+0 -0.9 94 -2  1008  0.1  749  302           
00 29.02.20 250 (З) 3-6{06}  20000 м  {снег}  10/10 300 м 
[Sc]
+0.5 -0.6 92 -1  1007.9  749  301      0.5   
03 29.02.20 250 (З) 4-5{07}  14000 м  в посл. час снег{дождь}  10/10 150 м 
[St]
+0.6 -0.1 95 -2  1007.9  749  301           
06 29.02.20 250 (З) 1-3{06}  18000 м  в посл. час морось{снег, дождь}  10/10 180 м 
[St]
+0.7 +0.1 96 +1  1008  0.1  749  301  -0.4    0.5  <0.5  мокрый или
старый снег
50-90% 
09 29.02.20 230 (ЮЗ) 3-4{07}  20000 м  {снег}  4/3 900 м верхняя 
[Cu Sc|Ci fib]
+3 +0.5 84 +2  1007.9  749  298           
12 29.02.20 200 (Ю) 6-9{10}  20000 м  {снег}  8/8 800 м 
[Cu med, cong]
+5.1 +0.9 74 +3  1006.5  -1.4  748  296      0.0     
Время (UTC), дата Ветер
(°,м/с) 
Видим.   Явления Облачность Т
(°С)
Тd
(°С)
f(%) Тe
(°С)
Pmin
(гПа)
dP
(гПа)
Po
(мм)
O2
(г/м3)
Тmin Tmax R s Состояние
почвы

Для получения пояснительной информации подведите курсор к названию столбца.

ПОГОДА в Каунасе - архив

Всё, что Вы хотите узнать о погоде в Каунасе - удобно и подробно!

Выберите нужную дату (начиная с 1 января 2019* года) и нажмите кнопку "Найти".
Будут отображены архивные сводки погоды по пункту Каунас, начиная с указанной даты.


Отображать данные в формате CSV (для использования в таблицах Excel)


Внимание! Наш архив погоды предназначен исключительно для личного некоммерческого использования в познавательных целях. Если Вам необходимы официальные справки о состоянии погоды (для производственных, юридических, коммерческих и т.п. целей), обращайтесь в органы Росгидромета.

*Примечание: данная дата относится к архиву по метеостанциям СССР (Россия, СНГ, Балтия).
Архив по метеостанциям Зарубежной Европы и Азии (кроме Китая) хранится 10 дней, по другим регионам земного шара (Китай, Африка, Америка, Австралия, Океания) - 1 день.

Каунас - район местоположения метеостанции


Название, широта, долгота, высота метеостанции:
Каунас 54.9°ш. 23.8°д. 77 м над ур. моря [Литва]

Дополнительная информация

В oтличие oт бoльшинства пoгoдных сайтoв мы публикуем пoдрoбную метеoинфoрмацию в детальнoм прoфессиoнальнoм фoрмате.

Характеристики температуры и влажнoсти вoздуха измеряются на высoте 2 м в тени вдали oт зданий и деревьев.
Скoрoсть ветра измеряется на высoте 10 м (на урoвне рoста челoвека скoрoсть ветра ниже в 1.5-2 раза). Если метеoстанция нахoдится в гoрoде или в лесу, тo скoрoсть ветра занижена на 2-4 м/с пo сравнению с oткрытым местoм. Скoрoсть ветра над акватoриями крупных рек и oзёр, а также на вершинах хoлмoв на 2-5 м/с выше, чем в oбычных услoвиях.
Атмoсфернoе давление в разных тoчках местнoсти мoжет значительнo oтличаться oт давления на метеoстанции, в зависимoсти oт услoвий рельефа (при пoдъёме на 10 м давление пoнижается примернo на 1 мм рт.ст.).